Flag for Burkina Faso Weather past 2 weeks in Koudougou, Burkina Faso

Now
91 °F

Broken clouds.


Feels Like: 100 °F
Forecast: N/A
Wind: 1 mph from North

Location: Ouagadougou Airport

Current Time: Sep 23, 2014 at 3:24:02 PM

Latest Report: Sep 23, 2014 at 2:00 PM


Visibility: N/A

Pressure: 29.89 "Hg

Humidity: 56%

Dew point: 73 °F

Location of KoudougouLocation

Historic Weather in Koudougou — Graph

°F

Koudougou temperature yesterday

Maximum temperature yesterday: 91 °F (at 2:00 PM)
Minimum temperature yesterday: 73 °F (at 5:00 AM)
Average temperature yesterday: 83 °F

Past Weeks' High & Low Weather Summary

 TemperatureHumidityPressure
High93 °F (Sep 13, 1:00 PM)100% (Sep 9, 6:00 AM)30.04 "Hg (Sep 9, 6:00 AM)
Low70 °F (Sep 14, 5:00 AM)49% (Sep 13, 1:00 PM)29.86 "Hg (Sep 9, 6:00 PM)
Average80 °F81%29.94 "Hg
* Reported Sep 8 2:00 PM — Sep 23 2:00 PM, Koudougou, Weather by CustomWeather, © 2014

Note: Actual official high and low records may vary slightly from our data, if they occured in-between our weather recording intervals... More about our weather records

Advertising

Koudougou weather history for previous 24 hours

 ConditionsComfort  
Time TempWeatherWind HumidityBarometerVisibility
2:00 PM
Sep 23
91 °FBroken clouds.1 mph56%29.89 "HgN/A
1:00 PM91 °FBroken clouds.3 mph56%29.92 "HgN/A
12:00 PM93 °FBroken clouds.2 mph53%29.92 "HgN/A
11:00 AM91 °FPartly sunny.2 mph59%29.95 "HgN/A
10:00 AM90 °FSunny.3 mph63%29.98 "Hg10 mi
9:00 AM86 °FPassing clouds.7 mph70%29.98 "HgN/A
8:00 AM82 °FPassing clouds.6 mph79%29.98 "HgN/A
7:00 AM79 °FSunny.5 mph89%29.95 "Hg10 mi
6:00 AM77 °FSunny.5 mph89%29.92 "Hg10 mi
5:00 AM77 °FClear.5 mph89%29.89 "Hg10 mi
4:00 AM77 °FClear.3 mph89%29.89 "Hg10 mi
3:00 AM77 °FClear.5 mph89%29.89 "Hg10 mi
2:00 AM79 °FClear.3 mph84%29.89 "Hg10 mi
11:00 PM
Sep 22
79 °FPassing clouds.3 mph94%29.95 "HgN/A
10:00 PM81 °FPassing clouds.1 mph84%29.95 "HgN/A
9:00 PM82 °FPassing clouds.1 mph79%29.95 "HgN/A
8:00 PM82 °FPassing clouds.1 mph79%29.92 "HgN/A
7:00 PM84 °FPassing clouds.1 mph79%29.92 "HgN/A
6:00 PM88 °FPartly sunny.3 mph66%29.89 "HgN/A
5:00 PM91 °FPartly sunny.1 mph56%29.86 "HgN/A
4:00 PM91 °FPartly sunny.2 mph52%29.89 "HgN/A
3:00 PM91 °FPartly sunny.7 mph56%29.86 "HgN/A
Weather by CustomWeather, © 2014

See weather overviewHow to use our weather pages